STARLINK-37635, 69029

Orbit data source: Space-Track

STARLINK-37635, 69029 is a payload satellite owned by SpaceX/Seattle (US) in SSO that was launched on Wed, 06 May 2026 UTC via an FALCON 9 launch vehicle from the Air Force Western Test Range (AFWTR). Payload-class satellites include a variety of spacecraft equipped with specific instruments for various scientific and technological missions. These include communications satellites like Starlink; space stations such as the ISS; scientific satellites like the Hubble; Earth observation satellites from companies like Planet Labs, Umbra, and HawkEye 360; GPS; miniature CubeSats for education and research; and military/defense satellites.

Loading next visibility...
Identifier
69029, 2026-101E
Orbit
SSO
Country
Flag of USUS
Related business
Manufacturer
SpaceX/Seattle
Mission
Operational spacecraft
Bus & Motor
STARLINK V2MO, Unknown motor
Mass
575 kg wet, ~530 kg dry
Launch date (UTC)
2026-05-06 (1 month ago)
Launch vehicle
FALCON 9
Launch site
Air Force Western Test Range (AFWTR)
Object type
Payload
Rocket body
Debris
Shape & HBR
Unknown shape, 14.5 m
Radar Cross Section
Large (>1 m²)

Expand to show TLE details & history
Last TLE update: 12 hours ago

TLE from 12 hours ago
0 STARLINK-37635
1 69029U 26101E   26168.60148312  .00009310  00000-0  29029-3 0  9992
2 69029  97.2845  23.4038 0002123 104.0880 256.0599 15.33448419  6635
Epoch: 2026-06-17T14:26Z
TLE epoch observation values (Epoch: 2026-06-17T14:26:08.141Z)
Latitude
-0.00001°
Longitude
-98.98694°
Altitude
468.995 km
Speed
7.631 km/s
True Right ascension
01h 33m 36s
True Declination
0° 00' 00"
Sunlit
Object was in daylight at epoch
Visualization orbit readout
Latitude
Unknown
Longitude
Unknown
Altitude
Unknown
Speed
Unknown
Apparent Right ascension
Unknown
Apparent Declination
Unknown
Sunlit
N/A
Visualization observer readout
Local Sidereal Time
12:55:18
Azimuth
Unknown
Elevation
Unknown
Doppler factor
Unknown
Orbital elements
Apogee altitude
463.928 km
Perigee altitude
461.023 km
Semi-major axis
6,840.613 km
Eccentricity
0.00021
Inclination
97.2845°
RAAN
23.4038°
Arg. of periapsis
104.088°
True anomaly
256.03629°
Mean anomaly
256.0599°
Eccentric anomaly
256.04809°
Mean motion
3.83619 °/min
Orbital period
93.84 mins
BSTAR
0.00029029
Loading maneuver chart data...
Computing Atmospheric mass density...
Loading historical data...
Loading historical data...
Loading historical data...
Loading historical data...
Loading historical data...
Loading historical data...
Loading historical data...

Documentation

Showing up to 5 results
|